This demonstration page uses our WeatherBlox Daily Observations layout. Learn more.

Left ArrowRight Arrow

39.92423, -83.80882

Hourly Observations for May 26, 2018

Temp ( °F °C ) Dew Point ( °F °C ) Humidity (%) Winds ( mph kmh ) Pressure ( in mb ) Visibility ( mi km ) Precip ( " mm )
12:56 am 00:56 Clear 67 19.4 58 14.4 73 73 SW 5 7 29.86 1011 10 16.0934 0 0
1:56 am 01:56 Clear 69 20.6 58 14.4 68 68 Calm 29.85 1011 10 16.0934 0 0
2:56 am 02:56 Clear 67 19.4 58 14.4 73 73 SSW 5 7 29.84 1011 10 16.0934 0 0
3:56 am 03:56 Partly Cloudy 65 18.3 58 14.4 78 78 Calm 29.85 1011 10 16.0934 0 0
4:56 am 04:56 Mostly Cloudy 65 18.3 60 15.6 84 84 S 3 6 29.84 1011 10 16.0934 0 0
5:56 am 05:56 Cloudy 67 19.4 60 15.6 79 79 S 3 6 29.84 1011 10 16.0934 0 0
6:56 am 06:56 Mostly Cloudy 68 20 61 16.1 78 78 Calm 29.85 1011 10 16.0934 0 0
7:56 am 07:56 Mostly Cloudy 70 21.1 61 16.1 73 73 SSW 6 9 29.86 1011 10 16.0934 0 0
8:56 am 08:56 Mostly Cloudy 74 23.3 63 17.2 69 69 SW 8 13 29.86 1011 10 16.0934 0 0
9:56 am 09:56 Mostly Sunny 74 23.3 64 17.8 71 71 WSW 10 17 29.88 1012 10 16.0934 0 0
10:56 am 10:56 Mostly Sunny 76 24.4 65 18.3 69 69 WSW 7 11 29.87 1012 10 16.0934 0 0
11:56 am 11:56 Cloudy 81 27.2 65 18.3 58 58 SW 12 19 29.86 1011 10 16.0934 0 0
12:56 pm 12:56 Mostly Cloudy 81 27.2 66 18.9 61 61 SW 12 19 29.85 1011 10 16.0934 0 0
1:56 pm 13:56 Mostly Sunny 84 28.9 65 18.3 53 53 SSW 12 19 29.83 1010 10 16.0934 0 0
2:56 pm 14:56 Mostly Sunny 84 28.9 67 19.4 57 57 S 13 20 29.8 1009 10 16.0934 0 0
3:56 pm 15:56 Mostly Sunny 82 27.8 66 18.9 58 58 SSW 9 15 29.79 1009 10 16.0934 0 0
4:11 pm 16:11 Partly Cloudy with Nearby Thunderstorms 81 27 66 19 62 62 SW 7 11 29.74 1007 9 14.48406 0 0
4:37 pm 16:37 Cloudy with Heavy Rain 72 22 68 20 88 88 W 17 28 29.8 1009 4 6.43736 0.01 0.254
4:45 pm 16:45 Cloudy with Light Thunderstorms 70 21 68 20 94 94 Calm 29.8 1009 6 9.65604 0.01 0.254
4:56 pm 16:56 Cloudy with Light Thunderstorms 71 21.7 68 20 90 90 Calm 29.81 1010 10 16.0934 0.01 0.254
5:33 pm 17:33 Mostly Cloudy with Nearby Thunderstorms 72 22 70 21 94 94 SSE 6 9 29.8 1009 10 16.0934 0 0.0254
5:37 pm 17:37 Mostly Cloudy 72 22 70 21 94 94 S 5 7 29.8 1009 10 16.0934 0 0.0254
5:56 pm 17:56 Mostly Cloudy 71 21.7 69 20.6 94 94 SSW 5 7 29.81 1010 10 16.0934 0 0.0254
6:56 pm 18:56 Mostly Sunny 71 21.7 67 19.4 87 87 SSW 3 6 29.8 1009 10 16.0934 0.01 0.254
7:56 pm 19:56 Partly Cloudy 70 21.1 68 20 93 93 WSW 7 11 29.81 1009 10 16.0934 0 0
8:56 pm 20:56 Cloudy 70 21.1 68 20 93 93 S 6 9 29.83 1010 10 16.0934 0 0
9:56 pm 21:56 Mostly Cloudy 70 21.1 67 19.4 90 90 SSE 3 6 29.84 1010 10 16.0934 0.22 5.588
10:56 pm 22:56 Partly Cloudy 70 21.1 68 20 93 93 Calm 29.85 1011 10 16.0934 0 0
11:56 pm 23:56 Clear 70 21.1 68 20 93 93 Calm 29.85 1011 10 16.0934 0 0

Powered by AerisWeather